MST,Max TemperatureF,Mean TemperatureF,Min TemperatureF,Max Dew PointF,MeanDew PointF,Min DewpointF,Max Humidity, Mean Humidity, Min Humidity, Max Sea Level PressureIn, Mean Sea Level PressureIn, Min Sea Level PressureIn, Max VisibilityMiles, Mean VisibilityMiles, Min VisibilityMiles, Max Wind SpeedMPH, Mean Wind SpeedMPH, Max Gust SpeedMPH,PrecipitationIn, CloudCover, Events, WindDirDegrees
2012-1-1,39,26,13,20,17,12,92,66,40,30.76,30.69,30.47,10,10,10,10,4,14,0.00,1,,33
2012-1-2,45,29,13,25,19,12,96,68,40,30.69,30.53,30.32,10,10,10,17,4,20,0.00,0,,30
2012-1-3,47,34,21,22,20,17,92,63,34,30.58,30.43,30.29,10,10,10,16,7,20,0.00,0,,238
2012-1-4,45,30,15,24,20,12,92,67,41,30.69,30.57,30.47,10,10,10,9,3,10,0.00,0,,40
2012-1-5,55,36,16,27,21,14,92,59,26,30.46,30.28,30.13,10,10,10,22,8,29,0.00,1,,205
2012-1-6,36,29,22,27,23,20,96,80,63,30.31,30.22,30.13,10,10,10,20,7,24,0.00,2,,262
2012-1-7,29,25,21,24,21,19,96,83,69,30.47,30.29,30.04,10,10,8,20,9,23,T,8,,232
2012-1-8,35,27,18,22,20,16,91,74,56,30.58,30.48,30.36,10,10,10,16,7,20,0.00,5,,233
2012-1-9,40,25,10,23,16,7,96,73,50,30.63,30.53,30.42,10,9,0,7,2,9,0.00,1,Fog,6
2012-1-10,45,28,10,31,16,8,92,69,45,30.40,30.26,30.10,10,7,0,28,10,35,T,4,Fog-Rain-Snow,247
2012-1-11,30,18,6,23,10,2,92,65,38,30.59,30.47,30.21,10,10,10,18,3,22,0.00,2,,268
2012-1-12,32,15,-3,12,4,-6,87,62,36,30.63,30.54,30.38,10,10,10,10,2,13,0.00,0,,299
2012-1-13,36,21,6,14,9,3,88,63,38,30.59,30.48,30.31,10,10,10,12,2,13,0.00,0,,333
2012-1-14,52,28,4,14,6,3,83,49,14,30.42,30.20,29.88,10,10,10,20,7,25,0.00,0,,188
2012-1-15,48,37,25,18,9,3,63,40,17,29.83,29.76,29.71,10,10,10,24,16,30,0.00,2,,214
2012-1-16,27,20,13,12,7,1,74,56,37,30.29,30.05,29.82,10,10,10,30,17,37,T,3,,236
2012-1-17,31,21,10,3,1,-2,61,43,25,30.32,30.24,30.07,10,10,10,23,13,31,0.00,2,,198
2012-1-18,37,32,27,34,24,1,92,60,28,30.13,30.01,29.91,10,7,1,29,16,37,0.12,8,Rain-Snow,219
2012-1-19,41,38,34,36,34,33,100,90,79,29.98,29.88,29.77,10,9,5,25,13,32,0.69,8,Rain,220
2012-1-20,45,41,36,35,33,31,92,77,62,29.98,29.87,29.68,10,10,10,29,17,38,0.02,6,Rain,211
2012-1-21,41,37,32,36,33,25,85,80,75,29.77,29.52,29.38,10,9,5,35,20,44,0.52,7,Rain,206
2012-1-22,35,31,26,25,20,17,78,63,47,30.11,30.02,29.81,10,10,10,31,17,39,0.00,5,,212
2012-1-23,37,29,21,31,26,21,100,78,56,30.09,29.89,29.77,10,7,1,18,6,24,0.08,8,Snow,201
2012-1-24,33,26,19,27,24,20,96,79,61,30.42,30.28,30.02,10,10,8,16,6,22,T,6,,237
2012-1-25,47,40,33,35,29,22,76,67,58,30.42,30.32,30.25,10,10,10,29,17,39,T,5,,205
2012-1-26,42,36,30,37,31,25,92,77,62,30.30,30.10,29.99,10,9,4,35,14,45,0.21,6,Rain,223
2012-1-27,31,26,21,27,20,15,88,73,58,30.61,30.44,30.18,10,10,10,22,14,29,0.00,3,,231
2012-1-28,37,27,17,16,13,11,80,58,35,30.62,30.59,30.56,10,10,10,17,8,22,0.00,0,,202
2012-1-29,44,33,21,21,18,14,92,66,39,30.55,30.36,30.13,10,10,10,13,5,14,0.00,0,,11
2012-1-30,43,32,20,30,25,18,91,71,51,30.13,30.06,29.99,10,9,2,28,12,33,T,4,Snow,214
2012-1-31,41,31,21,27,22,18,88,69,50,30.26,30.18,30.09,10,10,10,13,5,16,0.00,0,,259